Location: Unspecified
(0.0000°N, 0.0000°E)
Time: 05:11:57
(UTC+00:00)

N. Korean satellite - Pass Details

Date: 18 April 2021
Orbit: 450 x 501 km, 97.2° (Epoch: 16 May)

Event Time Altitude Azimuth Distance (km) Brightness Sun altitude
Rises 05:11:42 0° 2° (N) 2,495 10.4 -11.7°
Reaches altitude 10° 05:13:47 10° 357° (N) 1,613 9.3 -11.2°
Maximum altitude 05:17:09 50° 281° (W) 597 6.6 -10.4°
Drops below altitude 10° 05:20:28 10° 205° (SSW) 1,598 8.8 -9.5°
Sets 05:22:32 0° 199° (SSW) 2,467 9.9 -9.0°
